Cutler
DateTemperatureDew Point
05/09 - 10:45 AM78.8°59.8°
05/09 - 10:30 AM78.8°59.8°
05/09 - 10:15 AM76.6°59.0°
05/09 - 10:00 AM75.0°58.2°
05/09 - 09:45 AM73.8°57.8°
05/09 - 09:30 AM72.9°57.8°
05/09 - 09:15 AM72.0°57.9°
05/09 - 09:00 AM71.1°57.7°
05/09 - 08:45 AM69.5°57.6°
05/09 - 08:30 AM68.9°57.9°
05/09 - 08:15 AM67.6°58.1°
05/09 - 08:00 AM65.2°58.5°
05/09 - 07:45 AM62.9°58.7°
05/09 - 07:30 AM60.6°58.4°
05/09 - 07:15 AM58.3°57.4°
05/09 - 07:00 AM56.2°55.5°
05/09 - 06:45 AM55.1°54.4°
05/09 - 06:30 AM55.3°54.8°
05/09 - 06:15 AM53.8°53.3°
05/09 - 06:00 AM52.5°51.7°
05/09 - 05:45 AM51.3°50.1°
05/09 - 05:30 AM51.2°49.6°
05/09 - 05:15 AM51.4°49.7°
05/09 - 05:00 AM51.7°49.9°
05/09 - 04:45 AM52.2°50.4°
05/09 - 04:30 AM52.5°50.4°
05/09 - 04:15 AM52.6°50.8°
05/09 - 04:00 AM53.6°52.0°
05/09 - 03:45 AM52.7°50.6°
05/09 - 03:30 AM54.3°52.3°
05/09 - 03:15 AM55.0°53.3°
05/09 - 03:00 AM55.1°53.2°
05/09 - 02:45 AM55.8°53.8°
05/09 - 02:30 AM56.2°54.5°
05/09 - 02:15 AM56.6°55.1°
05/09 - 02:00 AM56.2°54.3°
05/09 - 01:45 AM56.1°53.7°
05/09 - 01:30 AM56.2°53.5°
05/09 - 01:15 AM56.3°53.6°
05/09 - 01:00 AM56.5°53.2°
05/09 - 12:45 AM56.9°53.0°
05/09 - 12:30 AM57.7°53.4°
05/09 - 12:15 AM58.6°53.6°
05/09 - 12:00 AM59.6°54.0°
05/08 - 11:45 PM60.3°54.5°
05/08 - 11:30 PM60.3°54.3°
05/08 - 11:15 PM60.8°54.3°
05/08 - 11:00 PM61.5°54.1°
05/08 - 10:45 PM62.7°53.9°
05/08 - 10:30 PM63.8°53.9°
05/08 - 10:15 PM64.7°53.6°
05/08 - 10:00 PM65.1°52.6°
05/08 - 09:45 PM66.1°53.0°
05/08 - 09:30 PM67.6°53.3°
05/08 - 09:15 PM69.1°52.9°
05/08 - 09:00 PM69.9°52.3°
05/08 - 08:45 PM71.7°53.5°
05/08 - 08:30 PM73.2°53.1°
05/08 - 08:15 PM75.2°52.0°
05/08 - 08:00 PM77.6°52.3°
05/08 - 07:45 PM79.6°51.7°
05/08 - 07:30 PM81.6°51.1°
05/08 - 07:15 PM83.4°50.1°
05/08 - 07:00 PM84.9°49.6°
05/08 - 06:45 PM86.4°49.1°
05/08 - 06:30 PM87.8°48.8°
05/08 - 06:15 PM88.9°48.0°
05/08 - 06:00 PM89.8°49.0°
05/08 - 05:45 PM90.3°49.4°
05/08 - 05:30 PM90.8°50.9°
05/08 - 05:15 PM91.0°51.3°
05/08 - 05:00 PM91.3°52.0°
05/08 - 04:45 PM91.1°52.7°
05/08 - 04:30 PM91.0°53.8°
05/08 - 04:15 PM91.8°56.1°
05/08 - 04:00 PM91.0°56.7°
05/08 - 03:45 PM91.3°57.2°
05/08 - 03:30 PM90.8°58.5°
05/08 - 03:15 PM90.5°59.1°
05/08 - 03:00 PM90.5°60.6°
05/08 - 02:45 PM90.3°62.0°
05/08 - 02:30 PM90.2°63.9°
05/08 - 02:15 PM90.1°64.5°
05/08 - 02:00 PM89.2°63.7°
05/08 - 01:45 PM88.7°64.2°
05/08 - 01:30 PM87.4°65.0°
05/08 - 01:15 PM86.1°64.2°
05/08 - 01:00 PM85.7°64.5°
05/08 - 12:45 PM84.8°64.3°
05/08 - 12:30 PM84.5°64.4°
05/08 - 12:15 PM84.4°64.9°
05/08 - 12:00 PM83.7°64.7°
05/08 - 11:45 AM83.2°64.7°
05/08 - 11:30 AM82.2°64.4°
05/08 - 11:15 AM81.1°64.5°
05/08 - 11:00 AM80.3°64.0°
05/08 - 10:45 AM80.6°64.3°
05/08 - 10:30 AM79.7°64.2°
05/08 - 10:15 AM78.3°63.9°
05/08 - 10:00 AM76.9°62.9°
05/08 - 09:45 AM76.0°62.4°
05/08 - 09:30 AM75.1°62.6°
05/08 - 09:15 AM73.7°62.6°
05/08 - 09:00 AM72.4°62.2°
05/08 - 08:45 AM71.5°62.7°
05/08 - 08:30 AM70.3°62.7°
05/08 - 08:15 AM68.8°62.3°
05/08 - 08:00 AM67.0°63.1°
05/08 - 07:45 AM64.2°63.8°
05/08 - 07:30 AM61.9°61.6°
05/08 - 07:15 AM59.1°58.7°
05/08 - 07:00 AM56.0°55.3°
05/08 - 06:45 AM54.6°53.6°
05/08 - 06:30 AM53.3°52.1°
05/08 - 06:15 AM54.4°53.2°
05/08 - 06:00 AM54.5°53.4°
05/08 - 05:45 AM54.8°53.8°
05/08 - 05:30 AM54.9°53.8°
05/08 - 05:15 AM55.1°53.8°
05/08 - 05:00 AM54.9°53.6°
05/08 - 04:45 AM55.4°53.9°
05/08 - 04:30 AM55.8°54.3°
05/08 - 04:15 AM56.1°54.3°
05/08 - 04:00 AM56.7°54.8°
05/08 - 03:45 AM57.4°55.4°
05/08 - 03:30 AM58.1°56.0°
05/08 - 03:15 AM58.2°56.3°
05/08 - 03:00 AM59.5°58.0°
05/08 - 02:45 AM59.7°57.9°
05/08 - 02:30 AM60.2°58.5°
05/08 - 02:15 AM60.5°58.9°
05/08 - 02:00 AM60.8°59.4°
05/08 - 01:45 AM60.5°58.9°
05/08 - 01:30 AM60.4°58.4°
05/08 - 01:15 AM60.5°57.7°
05/08 - 01:00 AM61.1°58.2°
05/08 - 12:45 AM61.8°58.7°
05/08 - 12:30 AM62.0°58.7°
05/08 - 12:15 AM62.9°59.2°
05/08 - 12:00 AM64.0°59.9°
05/07 - 11:45 PM65.2°60.4°
05/07 - 11:30 PM66.1°60.8°
05/07 - 11:15 PM67.1°61.2°
05/07 - 11:00 PM67.5°61.1°
05/07 - 10:45 PM67.8°61.2°
05/07 - 10:30 PM67.0°60.6°
05/07 - 10:15 PM66.8°60.5°
05/07 - 10:00 PM66.4°61.0°
05/07 - 09:45 PM66.7°61.7°
05/07 - 09:30 PM67.2°61.5°
05/07 - 09:15 PM67.7°61.2°
05/07 - 09:00 PM68.7°61.8°
05/07 - 08:45 PM70.3°62.5°
05/07 - 08:30 PM71.9°62.1°
05/07 - 08:15 PM73.9°62.3°
05/07 - 08:00 PM76.3°62.8°
05/07 - 07:45 PM79.0°63.1°
05/07 - 07:30 PM81.3°62.6°
05/07 - 07:15 PM83.0°61.5°
05/07 - 07:00 PM84.3°61.0°
05/07 - 06:45 PM85.6°60.7°
05/07 - 06:30 PM86.7°60.6°
05/07 - 06:15 PM88.1°60.6°
05/07 - 06:00 PM88.7°59.8°
05/07 - 05:45 PM89.1°59.9°
05/07 - 05:30 PM89.6°59.7°
05/07 - 05:15 PM89.8°60.0°
05/07 - 05:00 PM90.0°60.2°
05/07 - 04:45 PM89.7°60.1°
05/07 - 04:30 PM89.7°60.2°
05/07 - 04:15 PM89.5°60.1°
05/07 - 04:00 PM89.6°60.3°
05/07 - 03:45 PM89.4°60.3°
05/07 - 03:30 PM88.6°59.7°
05/07 - 03:15 PM89.1°60.1°
05/07 - 03:00 PM88.1°60.0°
05/07 - 02:45 PM87.5°59.5°
05/07 - 02:30 PM87.6°59.8°
05/07 - 02:15 PM87.4°59.7°
05/07 - 02:00 PM86.8°59.9°
05/07 - 01:45 PM85.8°59.5°
05/07 - 01:30 PM85.6°59.5°
05/07 - 01:15 PM85.3°59.7°
05/07 - 01:00 PM83.8°59.0°
05/07 - 12:45 PM83.5°58.9°
05/07 - 12:30 PM82.7°58.7°
05/07 - 12:15 PM82.7°58.3°
05/07 - 12:00 PM82.7°59.2°
05/07 - 11:45 AM81.6°58.4°
05/07 - 11:30 AM81.3°58.5°
05/07 - 11:15 AM80.1°57.9°